Radiation Dose measured at exhaust stack monitor of Fukushima Daiichi Nuclear Power Station
Date,Time,Unit 5 6 shared exhaust cylinders,Wind Direction,Wind Velocity(m/s)
2021/12/01,00:00,3.8,south-southwest,9.5
2021/12/01,00:10,4.0,south,10.2
2021/12/01,00:20,4.3,south,11.8
2021/12/01,00:30,4.0,south-southwest,10.3
2021/12/01,00:40,3.9,south,9.9
2021/12/01,00:50,3.8,south,9.7
2021/12/01,01:00,3.9,south,10.7
2021/12/01,01:10,4.0,south,9.5
2021/12/01,01:20,3.9,south,9.8
2021/12/01,01:30,3.9,south,9.3
2021/12/01,01:40,4.0,south-southeast,11.8
2021/12/01,01:50,4.0,south-southeast,13.3
2021/12/01,02:00,4.0,-,CALM
2021/12/01,02:10,4.1,south,13.6
2021/12/01,02:20,4.1,south,12.7
2021/12/01,02:30,4.0,south,14.6
2021/12/01,02:40,4.1,south,11.3
2021/12/01,02:50,4.0,south,12.0
2021/12/01,03:00,4.1,south,9.4
2021/12/01,03:10,4.1,south,11.3
2021/12/01,03:20,4.0,south,12.2
2021/12/01,03:30,4.0,south-southeast,17.2
2021/12/01,03:40,4.0,south,11.6
2021/12/01,03:50,4.0,south-southeast,17.7
2021/12/01,04:00,4.0,south-southeast,14.9
2021/12/01,04:10,4.0,south,14.1
2021/12/01,04:20,4.0,south,11.7
2021/12/01,04:30,3.9,south,11.6
2021/12/01,04:40,3.9,south,12.1
2021/12/01,04:50,4.0,south,15.8
2021/12/01,05:00,4.0,-,CALM
2021/12/01,05:10,4.0,south-southeast,13.6
2021/12/01,05:20,3.9,south-southeast,13.8
2021/12/01,05:30,3.9,south,12.7
2021/12/01,05:40,3.9,-,CALM
2021/12/01,05:50,4.0,-,CALM
2021/12/01,06:00,3.8,-,CALM
2021/12/01,06:10,4.0,-,CALM
2021/12/01,06:20,4.0,south,11.3
2021/12/01,06:30,3.9,south-southeast,15.7
2021/12/01,06:40,4.0,south,10.2
2021/12/01,06:50,4.0,south,10.3
2021/12/01,07:00,4.1,south,14.6
2021/12/01,07:10,4.1,south,10.9
2021/12/01,07:20,3.9,-,CALM
2021/12/01,07:30,3.9,-,CALM
2021/12/01,07:40,3.9,south-southeast,10.5
2021/12/01,07:50,4.1,-,CALM
2021/12/01,08:00,4.1,south-southwest,7.5
2021/12/01,08:10,4.0,south-southwest,7.9
2021/12/01,08:20,4.0,southwest,6.9
2021/12/01,08:30,4.0,south-southeast,6.3
2021/12/01,08:40,3.9,south-southeast,7.6
2021/12/01,08:50,3.8,south-southwest,4.2
2021/12/01,09:00,3.8,southwest,6.0
2021/12/01,09:10,3.8,south-southwest,4.8
2021/12/01,09:20,3.9,southwest,5.6
2021/12/01,09:30,4.0,west-southwest,7.7
2021/12/01,09:40,3.9,west-northwest,12.4
2021/12/01,09:50,4.1,west-northwest,11.3
2021/12/01,10:00,4.1,-,CALM
2021/12/01,10:10,4.2,-,CALM
2021/12/01,10:20,4.0,west-northwest,11.7
2021/12/01,10:30,4.0,-,CALM
2021/12/01,10:40,4.0,-,CALM
2021/12/01,10:50,4.0,-,CALM
2021/12/01,11:00,3.9,-,CALM
2021/12/01,11:10,4.1,-,CALM
2021/12/01,11:20,4.0,-,CALM
2021/12/01,11:30,3.9,-,CALM
2021/12/01,11:40,4.0,-,CALM
2021/12/01,11:50,4.1,-,CALM
2021/12/01,12:00,4.0,-,CALM
2021/12/01,12:10,3.9,-,CALM
2021/12/01,12:20,3.8,-,CALM
2021/12/01,12:30,3.9,-,CALM
2021/12/01,12:40,4.0,-,CALM
2021/12/01,12:50,3.9,-,CALM
2021/12/01,13:00,4.0,-,CALM
2021/12/01,13:10,3.9,-,CALM
2021/12/01,13:20,3.9,-,CALM
2021/12/01,13:30,4.2,-,CALM
2021/12/01,13:40,4.0,-,CALM
2021/12/01,13:50,4.0,-,CALM
2021/12/01,14:00,3.8,-,CALM
2021/12/01,14:10,4.1,west,13.9
2021/12/01,14:20,3.8,-,CALM
2021/12/01,14:30,3.9,-,CALM
2021/12/01,14:40,4.1,west,14.6
2021/12/01,14:50,4.0,-,-
2021/12/01,15:00,3.7,-,-
2021/12/01,15:10,4.0,-,-
2021/12/01,15:20,3.9,-,-
2021/12/01,15:30,3.9,-,-
2021/12/01,15:40,3.9,-,-
2021/12/01,15:50,4.0,west,11.3
2021/12/01,16:00,3.9,west,10.0
2021/12/01,16:10,4.0,west,9.3
2021/12/01,16:20,4.0,west,4.9
2021/12/01,16:30,3.9,west-northwest,7.8
2021/12/01,16:40,4.0,west,4.1
2021/12/01,16:50,3.9,west-northwest,5.0
2021/12/01,17:00,3.9,west,4.0
2021/12/01,17:10,4.0,west,6.4
2021/12/01,17:20,4.1,west-northwest,10.0
2021/12/01,17:30,4.1,west-northwest,6.1
2021/12/01,17:40,4.0,west,6.1
2021/12/01,17:50,4.0,west,5.6
2021/12/01,18:00,3.8,west-northwest,5.9
2021/12/01,18:10,4.0,west-northwest,5.4
2021/12/01,18:20,3.9,west,6.0
2021/12/01,18:30,4.1,west,5.7
2021/12/01,18:40,4.1,west,4.7
2021/12/01,18:50,3.9,west-southwest,5.5
2021/12/01,19:00,4.0,west,4.9
2021/12/01,19:10,3.9,west,5.9
2021/12/01,19:20,4.0,west,7.3
2021/12/01,19:30,4.1,west,7.0
2021/12/01,19:40,4.0,west,8.7
2021/12/01,19:50,4.0,west,9.5
2021/12/01,20:00,4.0,west,8.3
2021/12/01,20:10,4.0,west,8.1
2021/12/01,20:20,4.0,west,6.6
2021/12/01,20:30,4.0,west,7.5
2021/12/01,20:40,3.9,west-northwest,8.8
2021/12/01,20:50,4.1,west,8.4
2021/12/01,21:00,3.9,west-northwest,9.4
2021/12/01,21:10,3.8,west-northwest,8.5
2021/12/01,21:20,4.1,west,8.9
2021/12/01,21:30,3.9,west,7.8
2021/12/01,21:40,3.9,west,9.4
2021/12/01,21:50,4.0,west,9.3
2021/12/01,22:00,3.9,west,9.1
2021/12/01,22:10,4.0,west,6.4
2021/12/01,22:20,4.1,west,5.4
2021/12/01,22:30,3.9,west,5.3
2021/12/01,22:40,4.1,west,6.1
2021/12/01,22:50,4.0,west,7.1
2021/12/01,23:00,3.9,west,6.8
2021/12/01,23:10,3.9,west,6.6
2021/12/01,23:20,3.9,west,7.0
2021/12/01,23:30,3.9,west-northwest,7.1
2021/12/01,23:40,3.8,west-northwest,5.4
2021/12/01,23:50,4.0,west-northwest,7.5
